Location: Coed Ely
(51.5661°N, 3.4150°W)
Time: 23:01:36
(UTC+00:00)

Cosmos 1340 - Pass Details

Date: 28 January 2021
Orbit: 500 x 504 km, 81.2° (Epoch: 01 March)

Event Time Altitude Azimuth Distance (km) Brightness Sun altitude
Rises 18:06:20 0° 180° (S) 2,585 6.5 -10.9°
Reaches altitude 10° 18:08:28 10° 176° (S) 1,706 5.5 -11.2°
Maximum altitude 18:12:07 55° 98° (E) 607 2.7 -11.8°
Drops below altitude 10° 18:15:49 10° 20° (NNE) 1,721 5.0 -12.3°
Enters shadow 18:17:18 - 17° (NNE) 2,332 5.7 -12.6°
